Regional Weather Roundup
Issued by NWS

Home | Current Version | Previous Version | Graphics & Text | Print | Product List | Glossary Off
Versions: 1 2 3 4 5 6 7 8 9 10 11 12 13 14 15 16 17 18 19 20 21 22 23 24 25 26 27 28 29 30 31 32 33 34 35 36 37 38 39 40 41 42 43 44 45 46 47 48 49 50

000
ASUS44 KFWD 302215
RWRTX
NORTH TEXAS HOURLY WEATHER ROUNDUP
NATIONAL WEATHER SERVICE FORT WORTH TX
500 PM CDT TUE SEP 30 2014

NOTE: "FAIR" INDICATES FEW OR NO CLOUDS BELOW 12,000 FEET WITH NO
SIGNIFICANT WEATHER AND/OR OBSTRUCTIONS TO VISIBILITY.

TXZ118-119-302300-
DALLAS/FORT WORTH METROPLEX

CITY           SKY/WX    TMP DP  RH WIND       PRES   REMARKS
DFW AIRPORT    MOSUNNY   90  63  40 SE14      29.75F HX  91
DALLAS LOVE    PTSUNNY   88  64  44 SE12      29.76F
FTW MEACHAM    MOSUNNY   92  60  34 S13       29.75F HX  91
DAL-EXECUTIVE  MOSUNNY   92  62  36 VRB7G17   29.76F HX  92
FTW-ALLIANCE   MOSUNNY   89  60  37 S10G21    29.74F
FTW-NAS-JRB    MOSUNNY   95  56  26 S16       29.79F HX  93
FTW-SPINKS     PTSUNNY   91  57  31 SE12      29.77F HX  90
ARLINGTON      MOSUNNY   90  60  36 SE15      29.76F
GRAND PRAIRIE  SUNNY     90  59  35 MISG      29.77F
ADDISON        MOSUNNY   88  61  40 SE9G16    29.76
MESQUITE       MOSUNNY   90  63  40 SE8G16    29.77F HX  90
LANCASTER      MOSUNNY   89  61  38 SE8       29.77S
$$

TXZ091>094-102>105-117-120-121-131>134-302300-
NORTH CENTRAL TEXAS

CITY           SKY/WX    TMP DP  RH WIND       PRES   REMARKS
SHRMAN/DENISON MOSUNNY   88  61  39 E8        29.78F
GAINESVILLE    MOSUNNY   88  63  43 SE10G18   29.78F
BOWIE          MOSUNNY   89  56  32 S8G14     29.76F
BRIDGEPORT     SUNNY     91  50  23 S9G17     29.77F
DECATUR        SUNNY     89  56  31 S9        29.77S
DENTON         MOSUNNY   88  62  41 SE10      29.75F
MCKINNEY       SUNNY     90  63  40 S13       29.76F HX  91
GREENVILLE     SUNNY     90  61  37 S12       29.78F
ROCKWALL       MOSUNNY   90  65  42 SE8G21    29.76F HX  92
TERRELL        MOSUNNY   91  64  40 S13       29.77F HX  92
WAXAHACHIE     PTSUNNY   91  65  41 S12       29.78S HX  93
CLEBURNE       SUNNY     90  59  35 SE9       29.78F
GRANBURY       MOSUNNY   92  54  26 SE9       29.77F HX  90
$$

TXZ083>090-098>101-113>116-127>130-139>142-154-155-302300-
WESTERN NORTH TEXAS

CITY           SKY/WX    TMP DP  RH WIND       PRES   REMARKS
WICHITA FALLS  MOSUNNY   91  55  29 S17G26    29.72F
WF-KICKAPOO    SUNNY     92  51  24 S17       29.75S
VERNON         MOSUNNY   93  54  26 S20G25    29.72S HX  91
ABILENE        MOSUNNY   91  57  31 S12G25    29.77F
ABILENE-DYESS  PTSUNNY   91  59  33 SE14      29.76F HX  90
BRECKENRIDGE   SUNNY     92  53  26 SE14G22   29.75F HAZE    HX  90
GRAHAM         SUNNY     92  53  26 SE8G20    29.73F
MINERAL WELLS  SUNNY     90  54  29 VRB6G16   29.75F
STEPHENVILLE   SUNNY     89  53  29 S8        29.81F
COMANCHE       SUNNY     91  53  27 SE12      29.79F
BROWNWOOD      SUNNY     90  57  33 S9G17     29.78F
COLEMAN        SUNNY     92  54  27 S10G16    29.78F
BRADY          MOSUNNY   90  59  35 E10       29.79F
$$

TXZ143>147-156>162-174-175-302300-
CENTRAL TEXAS

CITY           SKY/WX    TMP DP  RH WIND       PRES   REMARKS
WACO           MOSUNNY   88  62  41 S9        29.76F
WACO-TSTC      MOSUNNY   90  63  40 S7        29.76F HX  90
WACO-MCGREGOR  MOSUNNY   90  61  37 S14       29.77F
HILLSBORO      MOSUNNY   91  60  34 S9        29.77S HX  91
CORSICANA      MOSUNNY   91  65  41 SE14      29.78F HX  93
MEXIA          MOSUNNY   87  68  52 SE7       29.77F HX  91
HEARNE         PTSUNNY   89  68  49 SE6       29.77F HX  93
CAMERON        SUNNY     90  67  45 SE7       29.77F HX  93
TEMPLE         MOSUNNY   90  63  40 SE9       29.77F HX  90
KILLEEN        MOSUNNY   88  61  40 SE7       29.79F
KILLEEN-SKYLRK MOSUNNY   90  63  40 S10       29.78F HX  90
GATESVILLE     MOSUNNY   88  61  40 S7        29.80F HAZE
HAMILTON       MOSUNNY   91  54  28 S10G21    29.80F
LAMPASAS       MOSUNNY   85  63  46 SE8       29.79S
$$

TXZ095>097-106>112-122>126-135>138-148>153-164>167-302300-
EAST TEXAS

CITY           SKY/WX    TMP DP  RH WIND       PRES   REMARKS
PARIS          PTSUNNY   84  63  48 E12       29.80F
SULPHUR SPRNGS MOSUNNY   90  62  38 S9        29.80F HX  90
MOUNT PLEASANT PTSUNNY   87  64  46 SE8       29.80F
GILMER         PTSUNNY   90  66  45 SE6       29.81F HX  92
MINEOLA        MOSUNNY   88  66  48 SE8       29.79F HX  90
TYLER          PTSUNNY   89  67  47 SE9       29.79F HX  92
LONGVIEW       MOSUNNY   89  66  46 S10       29.79F HX  91
MARSHALL       PTSUNNY   89  71  56 CALM      29.81F HX  95
ATHENS         MOSUNNY   88  66  48 SE7       29.77F HX  90
PALESTINE      MOSUNNY   88  70  54 S8        29.80F HX  93
JACKSONVILLE   SUNNY     88  68  51 SE7       29.82F HX  91
HENDERSON      PTSUNNY   87  69  54 E3        29.80F HX  91
NACOGDOCHES    SUNNY     88  66  48 SE9       29.80F HX  90
LUFKIN         MOSUNNY   89  70  53 SE9       29.79F HX  94
$$

SUPPLEMENTAL OBSERVATIONS (CENTRAL)

CITY           SKY/WX    TMP DP  RH WIND       PRES   REMARKS
LAKE TEXOMA      N/A     84  64  51 E9          N/A
CADDO GRASSLND   N/A     84  68  58 E6          N/A
PAT MAYSE LAKE   N/A     81  68  65 VRB5        N/A
GREENVILLE       N/A     91  63  38 S9          N/A  HX  92
CEDAR HILL       N/A     91  63  38 S6          N/A  HX  92
ATHENS           N/A     90  66  45 SE8G16      N/A  HX  92
LAKE LIMESTONE   N/A     90  68  48 SE5G14      N/A  HX  93
MCGREGOR         N/A     90  61  37 S9          N/A
$$

SUPPLEMENTAL OBSERVATIONS (WEST)

CITY           SKY/WX    TMP DP  RH WIND       PRES   REMARKS
MILLERS CREEK    N/A     91  59  33 S14G23      N/A  HX  90
LBJ GRASSLAND    N/A     91  57  31 S10         N/A  HX  90
COMANCHE         N/A     90  55  31 S10         N/A
HAMBY            N/A     88  55  33 S14         N/A
$$

SUPPLEMENTAL OBSERVATIONS (EAST)

CITY           SKY/WX    TMP DP  RH WIND       PRES   REMARKS
CADDO LAKE       N/A     86  70  58 CALM        N/A  HX  90
GILMER           N/A     88  64  45 S6          N/A
HENDERSON        N/A     88  68  51 E6          N/A  HX  91
LUFKIN           N/A     88  70  55 MISG        N/A  HX  92
N SABINE NF      N/A     90  68  48 MISG        N/A  HX  93
$$

SUPPLEMENTAL OBSERVATIONS ARE A COLLECTION OF AUTOMATED INSTRUMENTS
THAT ARE MAINTAINED BY A VARIETY OF FEDERAL AND STATE AGENCIES.
CERTAIN ELEMENTS...SUCH AS HUMIDITY VALUES AND SUSTAINED WIND
SPEEDS...MAY BE APPROXIMATED.




USA.gov is the U.S. government's official web portal to all federal, state and local government web resources and services.